Date String (YYYY-MM-DD hh:mm:ss) UTC,Instrument flags,Ambient pressure (hPa),Sample flow (lpm),Bypass flow (lpm),Sample temperature (°C),Ambient temperature (°C),ASC tube jacket temperature (°C),LED temperature (°C),Box temperature (°C),Sample RH (%),Span deviation,Mass concentration (μg/m³),Mass concentration (μg/m³),Mass concentration (μg/m³)
DateTimeUTC,F1_M11,P_M11,Q1_M11,Q2_M11,T1_M11,T2_M11,T3_M11,T4_M11,T5_M11,U1_M11,ZSPAN_M11,X2_M11,X0_M11,X1_M11
2023-03-12 20:00:00,,0824.7,5.00,0.00,22.1,20.3,00.0,31.0,23.7,12.3,-000.3,0005.53,0010.06,0005.17
2023-03-12 20:01:00,,0824.7,5.00,0.00,22.1,20.3,00.0,31.0,23.7,12.1,-000.2,0005.47,0009.85,0005.14
2023-03-12 20:02:00,,0824.6,5.01,0.00,22.1,20.3,00.0,31.0,23.8,12.2,-000.2,0005.43,0009.72,0005.12
2023-03-12 20:03:00,,0824.6,4.99,0.00,22.1,20.4,00.0,31.0,23.8,12.3,0000.0,0005.43,0009.68,0005.12
2023-03-12 20:04:00,,0824.7,5.00,0.00,22.1,20.4,00.0,31.0,23.8,12.3,0000.0,0005.41,0009.66,0005.11
2023-03-12 20:05:00,,0824.9,5.00,0.00,22.1,20.4,00.0,31.0,23.8,12.4,0000.0,0005.43,0009.22,0005.09
2023-03-12 20:06:00,,0824.7,5.00,0.00,22.1,20.4,00.0,31.0,23.8,12.3,0000.0,0005.45,0008.98,0005.07
2023-03-12 20:07:00,,0824.9,5.00,0.00,22.1,20.3,00.0,30.9,23.7,12.4,0000.0,0005.45,0008.85,0005.06
2023-03-12 20:08:00,,0824.8,5.00,0.00,22.0,20.2,00.0,30.9,23.6,12.5,0000.0,0005.42,0008.76,0005.07
2023-03-12 20:09:00,,0824.6,5.00,0.00,22.0,20.2,00.0,30.9,23.5,12.5,0000.0,0005.42,0008.48,0005.07
2023-03-12 20:10:00,,0824.6,5.01,0.00,21.9,20.1,00.0,30.8,23.4,12.6,0000.0,0005.46,0008.37,0005.08
2023-03-12 20:11:00,,0824.6,5.01,0.00,21.9,20.4,00.0,30.8,23.5,12.7,0000.0,0005.53,0008.49,0005.10
2023-03-12 20:12:00,,0824.6,4.98,0.00,22.0,21.9,00.0,30.8,23.9,12.6,0000.0,0005.60,0008.91,0005.15
2023-03-12 20:13:00,,0824.7,5.02,0.00,22.2,22.7,00.0,30.9,24.2,12.5,0000.0,0005.64,0009.01,0005.19
2023-03-12 20:14:00,,0824.5,5.01,0.00,22.2,22.2,00.0,30.9,24.1,12.4,-000.0,0005.66,0009.09,0005.22
2023-03-12 20:15:00,,0824.5,5.00,0.00,22.2,21.8,00.0,30.9,24.0,12.4,0000.4,0005.70,0009.16,0005.24
2023-03-12 20:16:00,,0824.8,4.99,0.00,22.2,21.5,00.0,30.9,24.0,12.5,0000.2,0005.69,0009.25,0005.26
2023-03-12 20:17:00,,0824.4,4.99,0.00,22.2,21.3,00.0,30.9,24.0,12.4,0000.4,0005.68,0009.31,0005.28
2023-03-12 20:18:00,,0824.8,5.02,0.00,22.2,21.0,00.0,31.0,23.9,12.5,0000.1,0005.69,0009.30,0005.29
2023-03-12 20:19:00,,0824.6,5.01,0.00,22.2,20.9,00.0,31.0,23.9,12.4,0000.0,0005.73,0009.30,0005.30
2023-03-12 20:20:00,,0824.7,5.01,0.00,22.2,20.8,00.0,31.0,23.9,12.4,-000.1,0005.75,0009.25,0005.32
2023-03-12 20:21:00,,0824.7,4.99,0.00,22.2,20.7,00.0,31.0,23.9,12.4,-000.4,0005.73,0009.24,0005.32
2023-03-12 20:22:00,,0824.6,5.00,0.00,22.2,20.7,00.0,31.0,23.9,12.4,-000.6,0005.70,0009.31,0005.31
2023-03-12 20:23:00,,0824.4,5.01,0.00,22.2,20.6,00.0,31.0,23.9,12.3,-000.7,0005.68,0008.98,0005.30
2023-03-12 20:24:00,,0824.4,5.01,0.00,22.2,20.6,00.0,31.0,23.9,12.3,-000.6,0005.65,0008.86,0005.29
2023-03-12 20:25:00,,0824.5,5.01,0.00,22.2,20.7,00.0,31.0,23.9,12.3,-000.1,0005.61,0008.69,0005.26
2023-03-12 20:26:00,,0824.5,5.00,0.00,22.2,20.7,00.0,31.0,23.9,12.4,0000.0,0005.57,0008.61,0005.23
2023-03-12 20:27:00,,0824.6,5.00,0.00,22.2,20.6,00.0,31.0,23.9,12.5,0000.0,0005.55,0008.53,0005.21
2023-03-12 20:28:00,,0824.5,5.00,0.00,22.2,20.6,00.0,30.9,23.9,12.3,0000.0,0005.53,0008.38,0005.19
2023-03-12 20:29:00,,0824.4,4.99,0.00,22.2,20.6,00.0,30.9,23.9,12.3,0000.0,0005.50,0008.34,0005.17
2023-03-12 20:30:00,,0824.4,5.00,0.00,22.2,20.6,00.0,30.9,23.9,12.4,0000.0,0005.45,0008.26,0005.14
2023-03-12 20:31:00,,0824.4,5.00,0.00,22.2,20.6,00.0,30.9,23.9,12.5,0000.0,0005.43,0008.66,0005.12
2023-03-12 20:32:00,,0824.7,4.99,0.00,22.2,20.6,00.0,30.9,23.9,12.4,0000.0,0005.42,0009.25,0005.11
2023-03-12 20:33:00,,0824.5,4.99,0.00,22.1,20.5,00.0,30.9,23.8,12.3,0000.0,0005.40,0009.18,0005.09
2023-03-12 20:34:00,,0824.5,5.01,0.00,22.1,20.4,00.0,30.9,23.8,12.3,0000.0,0005.38,0009.19,0005.08
2023-03-12 20:35:00,,0824.6,4.99,0.00,22.1,20.4,00.0,30.9,23.8,12.3,0000.0,0005.39,0009.24,0005.08
2023-03-12 20:36:00,,0824.7,4.99,0.00,22.1,20.5,00.0,30.9,23.8,12.3,0000.0,0005.40,0009.26,0005.09
2023-03-12 20:37:00,,0824.7,5.01,0.00,22.1,20.4,00.0,30.9,23.8,12.4,0000.4,0005.43,0009.31,0005.11
2023-03-12 20:38:00,,0824.5,4.99,0.00,22.1,20.3,00.0,30.9,23.8,12.4,0001.0,0005.47,0009.36,0005.13
2023-03-12 20:39:00,,0824.5,5.00,0.00,22.1,20.3,00.0,30.9,23.8,12.4,0000.9,0005.49,0009.60,0005.15
2023-03-12 20:40:00,,0824.4,4.99,0.00,22.0,20.3,00.0,30.9,23.7,12.5,0000.1,0005.51,0009.90,0005.18
2023-03-12 20:41:00,,0824.4,4.99,0.00,22.0,20.3,00.0,30.8,23.7,12.5,0000.7,0005.57,0009.98,0005.20
2023-03-12 20:42:00,,0824.4,5.00,0.00,22.0,20.2,00.0,30.8,23.7,12.6,0000.5,0005.61,0009.82,0005.23
2023-03-12 20:43:00,,0824.4,5.01,0.00,22.0,20.2,00.0,30.8,23.7,12.5,0001.0,0005.62,0009.10,0005.24
2023-03-12 20:44:00,,0824.4,5.00,0.00,22.0,20.1,00.0,30.8,23.6,12.5,0001.1,0005.63,0009.04,0005.26
2023-03-12 20:45:00,,0824.5,5.01,0.00,22.0,20.2,00.0,30.8,23.7,12.4,0001.7,0005.63,0008.94,0005.27
2023-03-12 20:46:00,,0824.4,4.99,0.00,22.0,20.2,00.0,30.8,23.7,12.5,0001.5,0005.63,0009.05,0005.26
2023-03-12 20:47:00,,0824.3,5.00,0.00,22.0,20.3,00.0,30.8,23.7,12.5,0000.8,0005.65,0009.18,0005.26
2023-03-12 20:48:00,,0824.3,5.01,0.00,22.0,20.4,00.0,30.8,23.7,12.5,0000.4,0005.63,0009.16,0005.25
2023-03-12 20:49:00,,0824.3,5.01,0.00,22.0,20.4,00.0,30.8,23.8,12.5,0000.9,0005.60,0009.08,0005.24
2023-03-12 20:50:00,,0824.3,5.00,0.00,22.0,20.5,00.0,30.8,23.8,12.6,0001.3,0005.59,0008.94,0005.22
2023-03-12 20:51:00,,0824.3,5.00,0.00,22.0,20.5,00.0,30.8,23.8,12.6,0002.0,0005.58,0008.78,0005.20
2023-03-12 20:52:00,,0824.2,5.01,0.00,22.0,20.5,00.0,30.8,23.8,12.6,0001.1,0005.53,0008.80,0005.18
2023-03-12 20:53:00,,0824.3,5.01,0.00,22.0,20.5,00.0,30.8,23.7,12.7,0001.3,0005.48,0008.74,0005.14
2023-03-12 20:54:00,,0824.4,4.98,0.00,22.0,20.4,00.0,30.7,23.7,12.7,0001.4,0005.46,0008.66,0005.12
2023-03-12 20:55:00,,0824.4,5.00,0.00,22.0,21.0,00.0,30.7,23.8,12.6,0001.1,0005.46,0008.64,0005.12
2023-03-12 20:56:00,,0824.3,4.97,0.00,22.1,22.3,00.0,30.7,24.1,12.5,0000.4,0005.45,0008.89,0005.12
2023-03-12 20:57:00,,0824.3,4.99,0.00,22.2,22.7,00.0,30.8,24.3,12.5,0000.0,0005.46,0009.48,0005.14
2023-03-12 20:58:00,,0824.3,4.98,0.00,22.3,22.3,00.0,30.8,24.2,12.5,0000.0,0005.51,0009.57,0005.17
2023-03-12 20:59:00,,0824.4,5.01,0.00,22.3,21.9,00.0,30.9,24.2,12.5,0000.0,0005.58,0009.94,0005.19
